Location: Alafon
(8.4500°N, 4.2333°E)
Time: 00:27:58
(UTC+00:00)

Explorer 7 - Pass Details

Date: 24 July 2021
Orbit: 484 x 676 km, 50.3° (Epoch: 22 September)

Event Time Altitude Azimuth Distance (km) Brightness Sun altitude
Rises 04:32:05 0° 201° (SSW) 2,536 - -15.0°
Reaches altitude 10° 04:34:23 10° 191° (S) 1,653 - -14.5°
Exits shadow 04:34:27 10° 191° (S) 1,631 8.9 -14.5°
Maximum altitude 04:37:45 32° 126° (SE) 840 8.1 -13.7°
Drops below altitude 10° 04:41:09 10° 61° (ENE) 1,674 10.8 -13.0°
Sets 04:43:29 0° 52° (NE) 2,573 11.9 -12.4°
